KK7KRZ Weather Reports


time (UTC)temp
C
wind
direction
speed
KPH
gust
KPH
rain 1hr
cm
rain 24hr
cm
rain mn
cm
humidity
%
barometer
mb
20260507085239 11 158 0.0 0.0 0.00 0.00 0.00 87 1021.3
20260507084736 11 145 0.0 1.6 0.00 0.00 0.00 87 1021.4
20260507084232 11 157 0.0 0.0 0.00 0.00 0.00 87 1021.3
20260507083730 11 157 0.0 0.0 0.00 0.00 0.00 87 1021.2
20260507083226 11 161 0.0 0.0 0.00 0.00 0.00 87 1021.1
20260507082722 11 159 0.0 0.0 0.00 0.00 0.00 87 1021.1
20260507082218 11 165 0.0 0.0 0.00 0.00 0.00 87 1021.3
20260507081715 11 164 0.0 0.0 0.00 0.00 0.00 87 1021.2
20260507081211 11 160 0.0 0.0 0.00 0.00 0.00 87 1021.3
20260507080708 11 165 0.0 0.0 0.00 0.00 0.00 87 1021.3
20260507080204 11 150 0.0 0.0 0.00 0.00 0.00 87 1021.2
20260507075700 11 161 0.0 0.0 0.00 0.00 0.00 87 1021.4
20260507075156 11 149 0.0 0.0 0.00 0.00 0.00 87 1021.3
20260507074653 11 167 0.0 0.0 0.00 0.00 0.00 87 1021.3
20260507074151 11 166 0.0 0.0 0.00 0.00 0.00 87 1021.3
20260507073647 11 162 0.0 0.0 0.00 0.00 0.00 87 1021.4
20260507073143 11 157 0.0 0.0 0.00 0.00 0.00 87 1021.4
20260507072642 11 151 0.0 0.0 0.00 0.00 0.00 86 1021.3
20260507072138 11 164 0.0 0.0 0.00 0.00 0.00 86 1021.2
20260507071636 11 158 0.0 1.6 0.00 0.00 0.00 86 1021.0
20260507071132 11 155 0.0 0.0 0.00 0.00 0.00 86 1021.2
20260507070629 11 175 0.0 0.0 0.00 0.00 0.00 87 1021.3
20260507070126 11 158 0.0 0.0 0.00 0.00 0.00 87 1021.1
20260507065623 11 164 0.0 0.0 0.00 0.00 0.00 87 1021.2
20260507065120 11 153 0.0 0.0 0.00 0.00 0.00 87 1021.2
20260507064617 11 153 0.0 0.0 0.00 0.00 0.00 87 1021.0
20260507064116 11 156 0.0 0.0 0.00 0.00 0.00 87 1021.2
20260507063613 11 162 0.0 0.0 0.00 0.00 0.00 87 1021.2
20260507063110 11 160 0.0 0.0 0.00 0.00 0.00 87 1021.0
20260507062606 11 13 0.0 0.0 0.00 0.00 0.00 87 1021.4
20260507062104 11 158 0.0 0.0 0.00 0.00 0.00 87 1021.2
20260507061602 11 160 0.0 0.0 0.00 0.00 0.00 87 1021.1
20260507061100 11 149 0.0 0.0 0.00 0.00 0.00 87 1021.2
20260507060557 11 162 0.0 0.0 0.00 0.00 0.00 87 1021.1
20260507060054 11 163 0.0 1.6 0.00 0.00 0.00 87 1021.3
20260507055554 11 159 0.0 0.0 0.00 0.00 0.00 87 1021.1
20260507055050 11 130 0.0 1.6 0.00 0.00 0.00 86 1021.0
20260507054546 11 157 0.0 0.0 0.00 0.00 0.00 86 1021.0
20260507054044 11 96 0.0 1.6 0.00 0.00 0.00 86 1021.1
20260507053542 11 106 0.0 1.6 0.00 0.00 0.00 86 1021.1
20260507053040 11 26 4.8 4.8 0.00 0.00 0.00 86 1020.9
20260507052537 11 152 0.0 1.6 0.00 0.00 0.00 86 1021.0
20260507052034 11 196 1.6 1.6 0.00 0.00 0.00 86 1020.8
20260507051532 11 152 0.0 0.0 0.00 0.00 0.00 85 1021.0
20260507051028 11 99 1.6 3.2 0.00 0.00 0.00 85 1021.0
20260507050525 11 72 1.6 3.2 0.00 0.00 0.00 85 1020.9
20260507050021 11 67 1.6 3.2 0.00 0.00 0.00 85 1020.9
20260507045518 11 36 3.2 4.8 0.00 0.00 0.00 85 1020.9
20260507045015 11 156 0.0 0.0 0.00 0.00 0.00 85 1020.8
20260507044512 11 149 0.0 0.0 0.00 0.00 0.00 85 1020.9
20260507044008 11 154 0.0 1.6 0.00 0.00 0.00 85 1021.0
20260507043505 11 124 1.6 1.6 0.00 0.00 0.00 85 1021.0
20260507043001 11 160 1.6 1.6 0.00 0.00 0.00 86 1020.6
20260507042458 11 136 0.0 0.0 0.00 0.00 0.00 86 1020.6
20260507041954 11 32 1.6 1.6 0.00 0.00 0.00 86 1020.7
20260507041451 11 151 0.0 1.6 0.00 0.00 0.00 86 1020.6
20260507040947 11 162 0.0 0.0 0.00 0.00 0.00 86 1020.4
20260507040443 12 163 0.0 0.0 0.00 0.00 0.00 85 1020.5
20260507035939 12 77 1.6 3.2 0.00 0.00 0.00 85 1020.4
20260507035436 12 162 0.0 0.0 0.00 0.00 0.00 85 1020.2
20260507034933 12 154 1.6 1.6 0.00 0.00 0.00 85 1020.3
20260507034430 12 161 0.0 0.0 0.00 0.00 0.00 84 1020.1
20260507033928 12 152 1.6 1.6 0.00 0.00 0.00 84 1020.0
20260507033425 12 157 0.0 0.0 0.00 0.00 0.00 83 1020.2
20260507032922 12 159 3.2 4.8 0.00 0.00 0.00 83 1020.1
20260507032419 13 162 0.0 0.0 0.00 0.00 0.00 83 1020.0
20260507031915 13 165 0.0 0.0 0.00 0.00 0.00 82 1020.1
20260507031412 13 159 0.0 0.0 0.00 0.00 0.00 82 1019.9
20260507030909 13 157 0.0 0.0 0.00 0.00 0.00 81 1019.9
20260507030406 13 158 0.0 0.0 0.00 0.00 0.00 81 1019.8
20260507025903 13 157 0.0 0.0 0.00 0.00 0.00 80 1019.8
20260507025400 13 178 0.0 1.6 0.00 0.00 0.00 80 1019.9
20260507024858 13 56 1.6 3.2 0.00 0.00 0.00 80 1019.9
20260507024355 14 156 0.0 0.0 0.00 0.00 0.00 79 1019.8
20260507023850 14 164 3.2 3.2 0.00 0.00 0.00 78 1019.7
20260507023348 14 153 0.0 0.0 0.00 0.00 0.00 78 1019.5
20260507022845 15 176 1.6 1.6 0.00 0.00 0.00 78 1019.9
20260507022341 15 170 1.6 1.6 0.00 0.00 0.00 77 1019.7
20260507021837 15 144 0.0 1.6 0.00 0.00 0.00 76 1019.7
20260507021333 15 151 1.6 3.2 0.00 0.00 0.00 76 1019.5
20260507020831 15 148 0.0 0.0 0.00 0.00 0.00 75 1019.7
20260507020327 16 170 0.0 0.0 0.00 0.00 0.00 74 1019.8
20260507015824 16 158 0.0 0.0 0.00 0.00 0.00 75 1019.7
20260507015322 16 149 3.2 3.2 0.00 0.00 0.00 74 1019.6
20260507014819 16 160 0.0 0.0 0.00 0.00 0.00 74 1019.8
20260507014316 16 152 0.0 0.0 0.00 0.00 0.00 74 1020.0
20260507013812 16 131 1.6 3.2 0.00 0.00 0.00 73 1019.6
20260507013309 16 119 1.6 1.6 0.00 0.00 0.00 73 1019.8
20260507012807 16 138 1.6 1.6 0.00 0.00 0.00 72 1019.9
20260507012306 16 117 0.0 1.6 0.00 0.00 0.00 72 1019.7
20260507011800 17 56 3.2 3.2 0.00 0.00 0.00 71 1019.8
20260507011256 17 62 0.0 0.0 0.00 0.00 0.00 71 1019.7
20260507010756 17 130 3.2 3.2 0.00 0.00 0.00 71 1019.8
20260507010252 17 151 3.2 4.8 0.00 0.00 0.00 71 1019.9
20260507005750 17 150 1.6 1.6 0.00 0.00 0.00 71 1020.0
20260507005246 17 156 0.0 1.6 0.00 0.00 0.00 70 1019.8
20260507004742 18 197 3.2 4.8 0.00 0.00 0.00 69 1019.7
20260507004240 18 134 4.8 8.0 0.00 0.00 0.00 69 1019.7
20260507003736 18 155 0.0 0.0 0.00 0.00 0.00 68 1019.6
20260507003232 18 109 0.0 1.6 0.00 0.00 0.00 68 1019.8
20260507002728 18 61 1.6 1.6 0.00 0.00 0.00 67 1019.7
20260507002224 18 152 1.6 1.6 0.00 0.00 0.00 67 1019.5
20260507001721 18 60 3.2 4.8 0.00 0.00 0.00 67 1019.7
20260507001218 19 134 3.2 3.2 0.00 0.00 0.00 67 1019.5
20260507000714 19 329 1.6 3.2 0.00 0.00 0.00 67 1019.7
20260507000212 19 134 1.6 1.6 0.00 0.00 0.00 66 1019.4
20260506235708 19 52 3.2 4.8 0.00 0.00 0.00 66 1019.5
20260506235203 20 38 3.2 4.8 0.00 0.00 0.00 65 1019.5
20260506234700 20 199 3.2 3.2 0.00 0.00 0.00 64 1019.6
20260506234157 20 148 0.0 1.6 0.00 0.00 0.00 65 1019.3
20260506233654 21 96 3.2 3.2 0.00 0.00 0.00 63 1019.5
20260506233151 21 176 1.6 1.6 0.00 0.00 0.00 65 1019.5
20260506232647 21 47 4.8 8.0 0.00 0.00 0.00 62 1019.4
20260506232143 21 159 1.6 1.6 0.00 0.00 0.00 62 1019.6
20260506231640 21 52 1.6 3.2 0.00 0.00 0.00 61 1019.6
20260506231139 22 136 0.0 1.6 0.00 0.00 0.00 59 1019.6
20260506230635 22 172 0.0 0.0 0.00 0.00 0.00 59 1019.6
20260506230132 22 170 1.6 1.6 0.00 0.00 0.00 58 1019.7
20260506225628 22 166 1.6 1.6 0.00 0.00 0.00 59 1019.8
20260506225125 22 176 1.6 1.6 0.00 0.00 0.00 58 1019.4
20260506224622 23 147 1.6 1.6 0.00 0.00 0.00 57 1019.4
20260506224118 23 135 1.6 1.6 0.00 0.00 0.00 56 1019.6
20260506223614 23 170 1.6 3.2 0.00 0.00 0.00 58 1019.8
20260506223110 22 186 0.0 1.6 0.00 0.00 0.00 58 1019.9
20260506222608 23 175 0.0 1.6 0.00 0.00 0.00 58 1019.9
20260506222104 23 170 0.0 0.0 0.00 0.00 0.00 57 1019.8
20260506221602 22 171 0.0 0.0 0.00 0.00 0.00 60 1019.9
20260506221100 23 168 3.2 3.2 0.00 0.00 0.00 57 1020.0
20260506220555 22 172 1.6 3.2 0.00 0.00 0.00 57 1019.9
20260506220051 22 153 0.0 0.0 0.00 0.00 0.00 60 1019.9
20260506215548 22 172 1.6 1.6 0.00 0.00 0.00 57 1020.0
20260506215043 22 164 0.0 0.0 0.00 0.00 0.00 60 1020.0
20260506214541 23 173 0.0 0.0 0.00 0.00 0.00 58 1020.1
20260506214038 22 177 0.0 1.6 0.00 0.00 0.00 63 1019.9
20260506213536 21 156 0.0 1.6 0.00 0.00 0.00 60 1020.0
20260506213033 22 151 1.6 1.6 0.00 0.00 0.00 58 1020.0
20260506212530 22 156 0.0 0.0 0.00 0.00 0.00 63 1020.0
20260506212024 22 166 0.0 1.6 0.00 0.00 0.00 60 1020.3
20260506211521 22 252 1.6 3.2 0.00 0.00 0.00 59 1020.3
20260506211018 21 170 0.0 1.6 0.00 0.00 0.00 63 1020.1
20260506210514 20 288 1.6 3.2 0.00 0.00 0.00 64 1020.2
20260506210011 20 133 1.6 1.6 0.00 0.00 0.00 64 1020.5
20260506205508 22 171 3.2 4.8 0.00 0.00 0.00 60 1020.1
20260506205003 22 176 1.6 1.6 0.00 0.00 0.00 62 1020.5
20260506204501 22 152 1.6 1.6 0.00 0.00 0.00 66 1020.6
20260506203953 21 161 1.6 1.6 0.00 0.00 0.00 63 1020.5
20260506203450 20 162 0.0 0.0 0.00 0.00 0.00 68 1020.8
20260506202947 20 139 3.2 3.2 0.00 0.00 0.00 67 1020.9
20260506202444 19 141 3.2 3.2 0.00 0.00 0.00 69 1020.5
20260506201941 18 36 3.2 4.8 0.00 0.00 0.00 71 1020.6
20260506201438 18 169 0.0 0.0 0.00 0.00 0.00 74 1020.6
20260506200934 19 169 1.6 1.6 0.00 0.00 0.00 72 1020.7
20260506200431 18 182 0.0 1.6 0.00 0.00 0.00 76 1020.8
20260506195927 18 163 1.6 1.6 0.00 0.00 0.00 75 1020.7
20260506195424 20 136 4.8 4.8 0.00 0.00 0.00 72 1020.6
20260506194921 18 155 0.0 0.0 0.00 0.00 0.00 72 1020.9
20260506194418 19 169 1.6 1.6 0.00 0.00 0.00 73 1020.9
20260506193915 18 171 1.6 1.6 0.00 0.00 0.00 76 1020.9
20260506193412 18 141 9.7 12.9 0.00 0.00 0.00 73 1020.9
20260506192908 18 157 1.6 1.6 0.00 0.00 0.00 75 1020.8
20260506192405 17 182 1.6 1.6 0.00 0.00 0.00 75 1020.8
20260506191902 17 171 1.6 1.6 0.00 0.00 0.00 80 1021.0
20260506191358 17 181 0.0 1.6 0.00 0.00 0.00 75 1020.9
20260506190855 16 141 4.8 4.8 0.00 0.00 0.00 79 1021.3
20260506190352 16 134 4.8 4.8 0.00 0.00 0.00 79 1021.1
20260506185849 16 178 1.6 1.6 0.00 0.00 0.00 81 1021.2
20260506185346 15 149 3.2 3.2 0.00 0.00 0.00 81 1021.3
20260506184843 16 161 3.2 4.8 0.00 0.00 0.00 79 1021.2
20260506184340 16 164 0.0 0.0 0.00 0.00 0.00 82 1021.0
20260506183837 16 144 6.4 8.0 0.00 0.00 0.00 81 1021.1
20260506183332 16 143 1.6 1.6 0.00 0.00 0.00 83 1021.1
20260506182830 16 157 0.0 0.0 0.00 0.00 0.00 83 1021.1
20260506182327 15 152 3.2 3.2 0.00 0.00 0.00 83 1021.3
20260506181825 15 114 3.2 4.8 0.00 0.00 0.00 83 1021.1
20260506181322 16 164 6.4 9.7 0.00 0.00 0.00 81 1021.0
20260506180819 16 159 0.0 0.0 0.00 0.00 0.00 82 1020.8
20260506180315 15 145 1.6 3.2 0.00 0.00 0.00 83 1020.9
20260506175812 15 166 0.0 0.0 0.00 0.00 0.00 85 1021.0
20260506175308 15 155 1.6 1.6 0.00 0.00 0.00 86 1021.1
20260506174801 14 154 0.0 1.6 0.00 0.00 0.00 86 1021.0
20260506174258 14 157 0.0 0.0 0.00 0.00 0.00 87 1021.2
20260506173755 13 150 3.2 4.8 0.00 0.00 0.00 86 1021.2
20260506173251 14 156 3.2 3.2 0.00 0.00 0.00 86 1021.0
20260506172749 14 171 0.0 1.6 0.00 0.00 0.00 86 1021.4
20260506172245 14 164 0.0 0.0 0.00 0.00 0.00 86 1021.2
20260506171743 13 154 1.6 1.6 0.00 0.00 0.00 87 1021.1
20260506171240 13 154 0.0 0.0 0.00 0.00 0.00 88 1020.9
20260506170738 13 172 0.0 1.6 0.00 0.00 0.00 89 1020.8
20260506170234 13 158 0.0 0.0 0.00 0.00 0.00 89 1020.8
20260506165733 13 146 3.2 3.2 0.00 0.00 0.00 88 1021.2
20260506165229 13 119 0.0 1.6 0.00 0.00 0.00 88 1021.0
20260506164726 13 146 0.0 0.0 0.00 0.00 0.00 89 1021.1
20260506164223 13 156 1.6 1.6 0.00 0.00 0.00 89 1021.0
20260506163720 13 183 0.0 1.6 0.00 0.00 0.00 90 1021.1
20260506163215 12 180 1.6 1.6 0.00 0.00 0.00 90 1021.0
20260506162711 12 160 0.0 0.0 0.00 0.00 0.00 90 1021.3
20260506162209 12 106 3.2 4.8 0.00 0.00 0.00 90 1021.2
20260506161706 12 154 0.0 0.0 0.00 0.00 0.00 90 1020.8
20260506161202 12 147 4.8 4.8 0.00 0.00 0.00 90 1020.7
20260506160700 12 133 3.2 3.2 0.00 0.00 0.00 91 1020.5
20260506160156 12 155 0.0 1.6 0.00 0.00 0.00 91 1020.6
20260506155655 12 123 3.2 4.8 0.00 0.00 0.00 90 1020.7
20260506155152 12 150 0.0 0.0 0.00 0.00 0.00 90 1020.8
20260506153259 12 148 0.0 0.0 0.00 0.00 0.00 91 1021.3
20260506152756 11 166 0.0 0.0 0.00 0.00 0.00 91 1021.0
20260506152254 11 169 1.6 1.6 0.00 0.00 0.00 91 1021.0
20260506151753 11 169 0.0 0.0 0.00 0.00 0.00 91 1021.2
20260506151249 11 168 1.6 1.6 0.00 0.00 0.00 91 1021.2
20260506150745 11 162 0.0 0.0 0.00 0.00 0.00 91 1021.1
20260506150243 11 161 0.0 0.0 0.00 0.00 0.00 90 1021.1
20260506145739 12 159 0.0 0.0 0.00 0.00 0.00 91 1021.1
20260506145236 12 170 0.0 0.0 0.00 0.00 0.00 91 1021.1
20260506144733 12 164 0.0 0.0 0.00 0.00 0.00 91 1020.7
20260506144230 11 155 0.0 1.6 0.00 0.00 0.00 92 1020.7
20260506143728 11 185 0.0 0.0 0.00 0.00 0.00 93 1020.5
20260506143225 11 161 0.0 0.0 0.00 0.00 0.00 93 1020.3
20260506142724 11 159 0.0 0.0 0.00 0.00 0.00 93 1020.1
20260506142221 11 161 0.0 0.0 0.00 0.00 0.00 94 1020.1
20260506141719 11 165 0.0 0.0 0.00 0.00 0.00 94 1020.1
20260506141217 10 151 0.0 1.6 0.00 0.00 0.00 95 1020.1
20260506140714 10 161 0.0 0.0 0.00 0.00 0.00 95 1020.1
20260506140211 10 158 0.0 1.6 0.00 0.00 0.00 95 1020.0
20260506135708 10 161 0.0 0.0 0.00 0.00 0.00 95 1019.9
20260506135204 10 161 0.0 0.0 0.00 0.00 0.00 95 1019.9
20260506134701 10 146 1.6 1.6 0.00 0.00 0.00 95 1019.8
20260506134157 10 161 0.0 0.0 0.00 0.00 0.00 94 1020.0
20260506133654 10 161 0.0 0.0 0.00 0.00 0.00 94 1020.1
20260506133151 11 161 0.0 0.0 0.00 0.00 0.00 94 1020.0
20260506132649 11 161 0.0 0.0 0.00 0.00 0.00 94 1019.9
20260506132145 11 159 0.0 0.0 0.00 0.00 0.00 94 1019.8
20260506131643 11 161 0.0 0.0 0.00 0.00 0.00 94 1019.8
20260506131139 11 161 0.0 0.0 0.00 0.00 0.00 94 1019.9
20260506130636 11 160 0.0 0.0 0.00 0.00 0.00 94 1019.7
20260506130133 11 161 0.0 0.0 0.00 0.00 0.00 94 1019.7
20260506125631 11 160 0.0 0.0 0.00 0.00 0.00 94 1019.7
20260506125129 11 160 0.0 0.0 0.00 0.00 0.00 94 1019.7
20260506124627 11 148 0.0 0.0 0.00 0.00 0.00 94 1019.7
20260506124124 11 158 0.0 0.0 0.00 0.00 0.00 94 1019.7
20260506123622 11 156 0.0 0.0 0.00 0.00 0.00 94 1019.8
20260506123120 11 162 0.0 0.0 0.00 0.00 0.00 94 1019.8
20260506122616 11 161 0.0 0.0 0.00 0.00 0.00 94 1019.7
20260506122114 11 162 0.0 0.0 0.00 0.00 0.00 94 1019.7
20260506121612 11 159 0.0 0.0 0.00 0.00 0.00 94 1019.5
20260506121108 11 159 0.0 0.0 0.00 0.00 0.00 94 1019.5
20260506120606 11 150 0.0 0.0 0.00 0.00 0.00 95 1019.8
20260506115601 11 162 0.0 0.0 0.00 0.00 0.00 95 1019.6
20260506115059 11 164 0.0 0.0 0.00 0.00 0.00 95 1019.2
20260506114556 11 162 0.0 0.0 0.00 0.00 0.00 95 1019.3
20260506114054 11 126 0.0 0.0 0.00 0.00 0.00 95 1019.3
20260506113552 11 45 4.8 8.0 0.00 0.00 0.00 95 1018.9
20260506113049 11 156 0.0 0.0 0.00 0.00 0.00 95 1019.0
20260506112545 11 166 0.0 1.6 0.00 0.00 0.00 96 1019.0
20260506112043 11 167 0.0 0.0 0.00 0.00 0.00 96 1019.0
20260506111541 11 156 0.0 0.0 0.00 0.00 0.00 96 1018.7
20260506111038 11 143 0.0 0.0 0.00 0.00 0.00 96 1018.6
20260506110535 11 145 1.6 1.6 0.00 0.00 0.00 96 1018.9
20260506110033 10 175 0.0 0.0 0.00 0.00 0.00 96 1018.6
20260506105528 10 161 0.0 0.0 0.00 0.00 0.00 96 1018.4
20260506105026 10 152 0.0 0.0 0.00 0.00 0.00 96 1018.4
20260506104524 10 160 0.0 0.0 0.00 0.00 0.00 96 1018.4
20260506104022 10 162 0.0 0.0 0.00 0.00 0.00 96 1018.0
20260506103519 10 158 0.0 0.0 0.00 0.00 0.00 96 1018.2
20260506103015 10 167 0.0 0.0 0.00 0.00 0.00 96 1018.2
20260506102514 10 160 0.0 0.0 0.00 0.00 0.00 96 1018.2
20260506102011 10 162 0.0 0.0 0.00 0.00 0.00 95 1018.0
20260506101507 10 162 0.0 0.0 0.00 0.00 0.00 95 1018.0
20260506101004 10 162 0.0 0.0 0.00 0.00 0.00 95 1018.0
20260506100503 10 162 0.0 0.0 0.00 0.00 0.00 95 1017.8
20260506100000 10 162 0.0 0.0 0.00 0.00 0.00 95 1018.1
20260506095459 10 162 0.0 0.0 0.00 0.00 0.00 95 1017.9
20260506094954 10 162 0.0 0.0 0.00 0.00 0.00 95 1017.8
20260506094453 10 162 0.0 0.0 0.00 0.00 0.00 95 1017.9
20260506093950 10 163 0.0 0.0 0.00 0.00 0.00 94 1017.7
20260506093448 10 161 0.0 0.0 0.00 0.00 0.00 94 1017.7
20260506092946 10 161 0.0 0.0 0.00 0.00 0.00 94 1017.6
20260506092444 10 160 0.0 0.0 0.00 0.00 0.00 94 1017.8
20260506091940 10 162 0.0 0.0 0.00 0.00 0.00 94 1017.8
20260506091438 10 161 0.0 0.0 0.00 0.00 0.00 93 1017.6
20260506090935 10 160 0.0 0.0 0.00 0.00 0.00 93 1017.5
20260506090433 10 160 0.0 0.0 0.00 0.00 0.00 93 1017.5
20260506085929 10 163 0.0 0.0 0.00 0.00 0.00 93 1017.3